EST,Max TemperatureF,Mean TemperatureF,Min TemperatureF,Max Dew PointF,MeanDew PointF,Min DewpointF,Max Humidity, Mean Humidity, Min Humidity, Max Sea Level PressureIn, Mean Sea Level PressureIn, Min Sea Level PressureIn, Max VisibilityMiles, Mean VisibilityMiles, Min VisibilityMiles, Max Wind SpeedMPH, Mean Wind SpeedMPH, Max Gust SpeedMPH,PrecipitationIn, CloudCover, Events, WindDirDegrees
2012-12-1,59,49,39,39,35,30,67,57,47,30.33,30.27,30.22,10,10,10,13,8,17,0.00,0,,176
2012-12-2,58,54,50,54,49,39,100,78,55,30.22,30.13,30.06,10,5,1,25,12,37,0.17,6,Rain,218
2012-12-3,61,58,54,56,54,53,100,89,78,30.23,30.18,30.15,10,4,0,13,6,15,0.02,7,Fog-Rain,184
2012-12-4,65,55,44,55,50,41,93,78,63,30.15,30.09,30.00,10,9,2,24,13,35,0.47,6,Rain,231
2012-12-5,43,36,28,39,31,19,100,80,59,30.39,30.28,30.17,10,8,0,16,8,21,0.00,3,Fog,300
2012-12-6,46,35,23,31,25,19,81,63,45,30.37,30.19,30.02,10,10,10,10,4,14,0.00,2,,112
2012-12-7,50,47,43,50,47,32,100,79,58,30.04,29.94,29.87,10,3,0,13,5,16,1.11,8,Fog-Rain,164
2012-12-8,54,49,43,52,49,39,100,90,80,30.09,29.90,29.83,10,8,1,17,9,22,0.16,8,Rain,230
2012-12-9,58,49,39,55,44,34,96,86,76,30.12,29.97,29.75,10,10,2,18,9,26,0.18,8,Rain,114
2012-12-10,58,47,36,55,44,34,100,93,85,29.83,29.68,29.57,10,7,2,21,10,28,0.86,8,Rain,260
2012-12-11,37,34,30,34,29,22,96,83,70,30.25,30.07,29.82,10,9,3,15,6,18,0.01,8,Snow,257
2012-12-12,40,33,25,25,22,20,85,67,48,30.45,30.40,30.27,10,10,9,8,3,14,0.00,0,,215
2012-12-13,45,32,19,25,20,16,92,63,33,30.46,30.40,30.30,10,9,5,8,3,9,0.00,0,,135
2012-12-14,50,40,30,28,23,20,72,56,39,30.33,30.28,30.24,10,10,10,12,6,15,0.00,0,,195
2012-12-15,50,41,32,35,26,22,70,52,34,30.23,30.09,29.88,10,10,7,13,4,17,0.06,3,Rain,128
2012-12-16,57,54,50,50,45,34,83,67,50,29.87,29.77,29.71,10,10,10,18,12,25,T,6,,196
2012-12-17,55,50,45,51,48,44,96,90,83,29.75,29.65,29.53,10,7,1,16,6,21,0.87,8,Rain,195
2012-12-18,46,41,36,45,35,29,93,79,64,29.85,29.72,29.53,10,10,5,21,10,28,T,7,Rain,254
2012-12-19,45,41,36,37,34,32,85,76,67,30.17,30.01,29.78,10,10,8,17,7,22,T,8,,258
2012-12-20,48,43,38,43,36,30,92,73,53,30.13,29.69,29.35,10,8,3,29,15,43,0.48,5,Rain,134
2012-12-21,39,34,29,29,26,23,92,76,59,29.77,29.48,29.38,10,4,0,31,17,40,0.01,8,Fog-Snow,254
2012-12-22,31,28,24,27,21,18,85,74,63,30.15,29.98,29.73,10,8,2,28,14,35,T,7,Snow,266
2012-12-23,39,30,21,23,21,18,88,70,52,30.09,30.01,29.94,10,10,10,14,7,18,0.00,0,,216
2012-12-24,35,31,26,34,29,21,100,85,69,30.02,29.86,29.75,10,5,0,13,6,18,0.10,5,Fog-Rain,93
2012-12-25,34,33,31,34,30,25,100,85,69,30.22,30.09,29.92,10,5,0,13,8,17,0.01,8,Fog,321
2012-12-26,32,30,28,28,27,25,92,82,72,30.14,29.74,29.56,10,5,0,24,12,32,0.00,8,Fog-Rain-Snow,56
2012-12-27,30,29,27,27,26,24,92,89,85,30.15,29.91,29.61,10,7,2,25,11,31,0.00,8,Rain-Snow,272
2012-12-28,32,29,25,24,22,21,85,77,69,30.19,30.11,29.90,10,10,8,13,4,25,0.00,6,,255
2012-12-29,31,29,27,28,26,22,92,84,75,29.99,29.75,29.63,10,2,0,15,8,21,0.23,8,Fog-Snow,315
2012-12-30,29,26,23,25,20,18,92,83,74,30.40,30.26,29.95,10,8,3,23,12,30,T,7,Snow,259
2012-12-31,33,27,20,28,24,17,92,74,56,30.35,30.13,30.02,10,6,0,21,10,29,0.04,6,Fog-Snow,221